Tracking 28794 objects as of 19-Apr-2024
HD Live streaming from Space Station
objects crossing your sky now

TDRS 10

Track TDRS 10 now!
TDRS 10 is classified as:


NORAD ID: 27566
Int'l Code: 2002-055A
Perigee: 35,763.6 km
Apogee: 35,823.0 km
Inclination: 9.5 °
Period: 1,436.1 minutes
Semi major axis: 42164 km
RCS: 5.0118 m2 (large)
Launch date: December 5, 2002
Source: United States (US)
Launch site: AIR FORCE EASTERN TEST RANGE (AFETR)

Tracking and communications with space shuttle, other missions.
Your satellite tracking list
Your tracking list is empty




NASA's NSSDC Master Catalog

Two Line Element Set (TLE):
1 27566U 02055A   24110.55592688  .00000090  00000-0  00000-0 0  9993
2 27566   9.4549  45.8038 0007038 330.3019 220.9791  1.00273443 78328
Source of the keplerian elements: AFSPC